CEB145 RPLL-RPME

Flight info

Callsign CEB145
Flight time 1h 16m
Altitude 37000
Route IPATA2V IPATA B462 TAC W9 BANWA
Aircraft A320/M-SDE3FGHIRWY/LB1

Departure

Time 2026-05-08 11:24
Airport Ninoy Aquino International Airport (RPLL)

Arrival

Time 2026-05-08 12:40
Airport Bancasi Airport (RPME)
Time Latitude Longitude Altitude Speed Heading
2026-05-08 10:59 14.51666 121.01520 68 ft 0 kts 44°
2026-05-08 11:16 14.51665 121.01519 68 ft 0 kts 44°
2026-05-08 11:16 14.51659 121.01513 49 ft 0 kts 44°
2026-05-08 11:16 14.51645 121.01500 56 ft 5 kts 44°
2026-05-08 11:16 14.51626 121.01480 64 ft 6 kts 41°
2026-05-08 11:17 14.51593 121.01461 65 ft 5 kts
2026-05-08 11:17 14.51578 121.01461 59 ft 0 kts 339°
2026-05-08 11:18 14.51578 121.01460 59 ft 0 kts 338°
2026-05-08 11:18 14.51595 121.01447 59 ft 11 kts 317°
2026-05-08 11:19 14.51665 121.01370 65 ft 17 kts 302°
2026-05-08 11:19 14.51659 121.01304 64 ft 2 kts 242°
2026-05-08 11:19 14.51656 121.01283 62 ft 2 kts 301°
2026-05-08 11:19 14.51678 121.01259 69 ft 7 kts 314°
2026-05-08 11:20 14.51709 121.01226 69 ft 10 kts 314°
2026-05-08 11:20 14.51767 121.01165 63 ft 14 kts 315°
2026-05-08 11:20 14.51843 121.01088 69 ft 17 kts 315°
2026-05-08 11:20 14.51933 121.00994 63 ft 20 kts 315°
2026-05-08 11:21 14.51993 121.00932 68 ft 12 kts 315°
2026-05-08 11:21 14.52058 121.00865 69 ft 15 kts 315°
2026-05-08 11:21 14.52132 121.00788 68 ft 5 kts 315°
2026-05-08 11:21 14.52139 121.00780 60 ft 3 kts 315°
2026-05-08 11:22 14.52162 121.00753 64 ft 7 kts 306°
2026-05-08 11:22 14.52181 121.00722 61 ft 0 kts 298°
2026-05-08 11:22 14.52180 121.00720 61 ft 1 kts 279°
2026-05-08 11:23 14.52173 121.00711 62 ft 3 kts 233°
2026-05-08 11:23 14.52148 121.00677 64 ft 8 kts 232°
2026-05-08 11:23 14.52096 121.00676 63 ft 8 kts 147°
2026-05-08 11:23 14.52083 121.00688 64 ft 0 kts 131°
2026-05-08 11:24 14.52006 121.00771 64 ft 51 kts 135°
2026-05-08 11:24 14.51589 121.01208 64 ft 119 kts 135°
2026-05-08 11:24 14.50875 121.01907 282 ft 151 kts 138°
2026-05-08 11:24 14.50033 121.02659 723 ft 168 kts 139°
2026-05-08 11:25 14.49100 121.03476 1242 ft 184 kts 138°
2026-05-08 11:25 14.48082 121.04369 1768 ft 200 kts 135°
2026-05-08 11:25 14.47046 121.05429 2227 ft 221 kts 128°
2026-05-08 11:25 14.46005 121.06704 2744 ft 243 kts 128°
2026-05-08 11:26 14.44841 121.08083 3337 ft 261 kts 130°
2026-05-08 11:26 14.43605 121.09455 4234 ft 264 kts 129°
2026-05-08 11:26 14.42495 121.10986 5160 ft 267 kts 120°
2026-05-08 11:26 14.41499 121.12632 6014 ft 273 kts 120°
2026-05-08 11:27 14.40472 121.14296 6884 ft 277 kts 121°
2026-05-08 11:27 14.39424 121.15980 7752 ft 279 kts 121°
2026-05-08 11:27 14.38374 121.17667 8640 ft 281 kts 121°
2026-05-08 11:27 14.37307 121.19382 9463 ft 286 kts 121°
2026-05-08 11:28 14.36227 121.21116 10252 ft 290 kts 121°
2026-05-08 11:28 14.35107 121.22919 10625 ft 311 kts 121°
2026-05-08 11:28 14.33892 121.24877 10846 ft 334 kts 121°
2026-05-08 11:28 14.32613 121.26931 11422 ft 342 kts 121°
2026-05-08 11:29 14.31318 121.29007 12148 ft 346 kts 121°
2026-05-08 11:29 14.30006 121.31112 12869 ft 350 kts 121°
2026-05-08 11:29 14.28683 121.33235 13616 ft 353 kts 121°
2026-05-08 11:29 14.27350 121.35372 14238 ft 357 kts 121°
2026-05-08 11:30 14.26457 121.36805 14663 ft 359 kts 121°
2026-05-08 11:30 14.24658 121.39689 15495 ft 363 kts 121°
2026-05-08 11:30 14.23291 121.41881 16079 ft 367 kts 121°
2026-05-08 11:30 14.21901 121.44106 16711 ft 369 kts 121°
2026-05-08 11:31 14.20503 121.46341 17269 ft 373 kts 121°
2026-05-08 11:31 14.19097 121.48593 17853 ft 376 kts 121°
2026-05-08 11:31 14.18152 121.50104 18241 ft 378 kts 121°
2026-05-08 11:31 14.16721 121.52394 18713 ft 382 kts 121°
2026-05-08 11:32 14.15325 121.54628 19188 ft 384 kts 121°
2026-05-08 11:32 14.13863 121.56965 19653 ft 388 kts 121°
2026-05-08 11:32 14.12394 121.59313 20142 ft 391 kts 121°
2026-05-08 11:32 14.10873 121.61653 20623 ft 395 kts 125°
2026-05-08 11:33 14.09085 121.63824 21092 ft 400 kts 133°
2026-05-08 11:33 14.07023 121.65761 21565 ft 404 kts 140°
2026-05-08 11:33 14.04762 121.67491 22038 ft 408 kts 142°
2026-05-08 11:33 14.02448 121.69243 22497 ft 412 kts 142°
2026-05-08 11:34 14.00132 121.71006 22968 ft 415 kts 142°
2026-05-08 11:34 13.97811 121.72777 23410 ft 419 kts 142°
2026-05-08 11:34 13.95453 121.74577 23804 ft 422 kts 142°
2026-05-08 11:34 13.93082 121.76384 24207 ft 424 kts 142°
2026-05-08 11:35 13.90709 121.78193 24631 ft 426 kts 142°
2026-05-08 11:35 13.88356 121.79999 25005 ft 429 kts 141°
2026-05-08 11:35 13.86117 121.82037 25382 ft 430 kts 134°
2026-05-08 11:35 13.84122 121.84330 25742 ft 432 kts 129°
2026-05-08 11:36 13.82190 121.86724 26106 ft 434 kts 129°
2026-05-08 11:36 13.80272 121.89084 26475 ft 437 kts 129°
2026-05-08 11:36 13.78295 121.91508 26837 ft 439 kts 129°
2026-05-08 11:36 13.76335 121.93910 27193 ft 441 kts 130°
2026-05-08 11:37 13.74328 121.96368 27537 ft 444 kts 130°
2026-05-08 11:37 13.72341 121.98801 27885 ft 446 kts 130°
2026-05-08 11:37 13.70339 122.01253 28211 ft 448 kts 130°
2026-05-08 11:37 13.68336 122.03705 28548 ft 450 kts 130°
2026-05-08 11:38 13.66310 122.06183 28879 ft 452 kts 130°
2026-05-08 11:38 13.64297 122.08647 29157 ft 455 kts 130°
2026-05-08 11:38 13.62273 122.11121 29456 ft 457 kts 130°
2026-05-08 11:38 13.60219 122.13633 29756 ft 459 kts 130°
2026-05-08 11:39 13.58143 122.16170 30041 ft 462 kts 130°
2026-05-08 11:39 13.56075 122.18697 30304 ft 464 kts 131°
2026-05-08 11:39 13.53988 122.21246 30560 ft 466 kts 131°
2026-05-08 11:39 13.51899 122.23797 30818 ft 469 kts 131°
2026-05-08 11:40 13.49795 122.26364 31106 ft 470 kts 131°
2026-05-08 11:40 13.47686 122.28938 31438 ft 470 kts 131°
2026-05-08 11:40 13.45578 122.31510 31754 ft 471 kts 131°
2026-05-08 11:40 13.43460 122.34093 32083 ft 471 kts 131°
2026-05-08 11:41 13.41347 122.36669 32399 ft 471 kts 131°
2026-05-08 11:41 13.39235 122.39243 32711 ft 471 kts 131°
2026-05-08 11:41 13.37138 122.41798 32996 ft 472 kts 131°
2026-05-08 11:41 13.35021 122.44376 33272 ft 472 kts 131°
2026-05-08 11:42 13.32903 122.46955 33581 ft 472 kts 131°
2026-05-08 11:42 13.30782 122.49537 33862 ft 472 kts 131°
2026-05-08 11:42 13.28662 122.52117 34100 ft 472 kts 131°
2026-05-08 11:42 13.26548 122.54689 34369 ft 471 kts 131°
2026-05-08 11:43 13.24433 122.57262 34629 ft 471 kts 131°
2026-05-08 11:43 13.22499 122.59613 34848 ft 470 kts 131°
2026-05-08 11:43 13.20246 122.62352 35112 ft 470 kts 131°
2026-05-08 11:43 13.18138 122.64914 35362 ft 469 kts 131°
2026-05-08 11:44 13.16023 122.67483 35601 ft 469 kts 131°
2026-05-08 11:44 13.13915 122.70043 35844 ft 469 kts 131°
2026-05-08 11:44 13.11815 122.72593 36084 ft 468 kts 131°
2026-05-08 11:44 13.09707 122.75152 36324 ft 468 kts 131°
2026-05-08 11:45 13.07607 122.77699 36560 ft 468 kts 131°
2026-05-08 11:45 13.05509 122.80244 36796 ft 467 kts 131°
2026-05-08 11:45 13.03409 122.82790 36895 ft 467 kts 131°
2026-05-08 11:46 12.99224 122.87864 36885 ft 465 kts 131°
2026-05-08 11:46 12.95075 122.92890 36891 ft 466 kts 131°
2026-05-08 11:47 12.90868 122.97982 36887 ft 466 kts 131°
2026-05-08 11:47 12.86674 123.03057 36892 ft 467 kts 131°
2026-05-08 11:48 12.82474 123.08137 36887 ft 467 kts 131°
2026-05-08 11:48 12.78275 123.13212 36890 ft 467 kts 131°
2026-05-08 11:49 12.74069 123.18293 36892 ft 467 kts 132°
2026-05-08 11:49 12.69887 123.23343 36891 ft 467 kts 132°
2026-05-08 11:50 12.65687 123.28410 36889 ft 467 kts 132°
2026-05-08 11:50 12.61476 123.33489 36894 ft 467 kts 132°
2026-05-08 11:51 12.57268 123.38562 36893 ft 467 kts 132°
2026-05-08 11:51 12.53061 123.43630 36893 ft 467 kts 132°
2026-05-08 11:52 12.48848 123.48702 36890 ft 467 kts 132°
2026-05-08 11:52 12.46023 123.52102 36889 ft 467 kts 132°
2026-05-08 11:53 12.40616 123.58605 36888 ft 468 kts 132°
2026-05-08 11:53 12.36430 123.63640 36891 ft 468 kts 132°
2026-05-08 11:54 12.32282 123.68746 36889 ft 469 kts 131°
2026-05-08 11:54 12.28191 123.73823 36875 ft 470 kts 131°
2026-05-08 11:55 12.24012 123.78989 36880 ft 471 kts 131°
2026-05-08 11:55 12.19825 123.84155 36887 ft 472 kts 131°
2026-05-08 11:56 12.15631 123.89325 36889 ft 473 kts 132°
2026-05-08 11:56 12.11431 123.94496 36898 ft 473 kts 132°
2026-05-08 11:57 12.07212 123.99691 36900 ft 474 kts 132°
2026-05-08 11:57 12.02997 124.04878 36901 ft 474 kts 131°
2026-05-08 11:58 11.98784 124.10062 36909 ft 475 kts 131°
2026-05-08 11:58 11.94602 124.15204 36907 ft 475 kts 131°
2026-05-08 11:59 11.90069 124.20775 36911 ft 475 kts 131°
2026-05-08 11:59 11.88321 124.22923 36888 ft 463 kts 131°
2026-05-08 11:59 11.86255 124.25461 36889 ft 467 kts 131°
2026-05-08 12:00 11.82063 124.30605 36890 ft 472 kts 131°
2026-05-08 12:00 11.77863 124.35760 36893 ft 471 kts 131°
2026-05-08 12:01 11.73716 124.40846 36892 ft 471 kts 131°
2026-05-08 12:01 11.69526 124.45982 36889 ft 471 kts 131°
2026-05-08 12:02 11.65357 124.51090 36893 ft 470 kts 131°
2026-05-08 12:02 11.61163 124.56225 36898 ft 470 kts 131°
2026-05-08 12:03 11.56978 124.61348 36898 ft 470 kts 131°
2026-05-08 12:03 11.52789 124.66471 36897 ft 470 kts 131°
2026-05-08 12:04 11.48621 124.71567 36905 ft 470 kts 131°
2026-05-08 12:04 11.44430 124.76688 36894 ft 470 kts 131°
2026-05-08 12:05 11.40246 124.81799 36903 ft 470 kts 131°
2026-05-08 12:05 11.36054 124.86915 36899 ft 470 kts 131°
2026-05-08 12:06 11.33963 124.89467 36783 ft 468 kts 131°
2026-05-08 12:06 11.31877 124.92012 36834 ft 467 kts 131°
2026-05-08 12:06 11.27696 124.97109 36902 ft 469 kts 131°
2026-05-08 12:07 11.23056 125.01697 36904 ft 464 kts 149°
2026-05-08 12:07 11.20244 125.03176 36914 ft 461 kts 161°
2026-05-08 12:07 11.17164 125.04055 36913 ft 458 kts 171°
2026-05-08 12:08 11.10877 125.05202 36911 ft 457 kts 172°
2026-05-08 12:08 11.04606 125.06391 36671 ft 459 kts 171°
2026-05-08 12:09 11.01516 125.07008 36428 ft 458 kts 170°
2026-05-08 12:09 10.98399 125.07639 36183 ft 457 kts 170°
2026-05-08 12:09 10.95273 125.08275 35945 ft 457 kts 170°
2026-05-08 12:09 10.92148 125.08911 35708 ft 458 kts 170°
2026-05-08 12:10 10.89031 125.09545 35505 ft 456 kts 170°
2026-05-08 12:10 10.85955 125.10172 35430 ft 447 kts 170°
2026-05-08 12:10 10.82947 125.10785 35324 ft 434 kts 169°
2026-05-08 12:10 10.80058 125.11549 35215 ft 422 kts 165°
2026-05-08 12:11 10.77280 125.12370 35106 ft 409 kts 165°
2026-05-08 12:11 10.74596 125.13156 35002 ft 396 kts 166°
2026-05-08 12:11 10.71980 125.13920 34896 ft 382 kts 166°
2026-05-08 12:11 10.69471 125.14651 34803 ft 369 kts 166°
2026-05-08 12:12 10.67043 125.15359 34706 ft 356 kts 166°
2026-05-08 12:12 10.64698 125.16043 34550 ft 344 kts 166°
2026-05-08 12:12 10.62442 125.16700 34253 ft 339 kts 166°
2026-05-08 12:12 10.60171 125.17359 33813 ft 339 kts 166°
2026-05-08 12:13 10.57893 125.18018 33310 ft 338 kts 166°
2026-05-08 12:13 10.55643 125.18673 32841 ft 336 kts 165°
2026-05-08 12:13 10.53402 125.19327 32409 ft 334 kts 165°
2026-05-08 12:13 10.51181 125.19975 31969 ft 331 kts 165°
2026-05-08 12:14 10.48973 125.20619 31541 ft 329 kts 165°
2026-05-08 12:14 10.46798 125.21252 31127 ft 328 kts 164°
2026-05-08 12:14 10.44606 125.21890 30713 ft 326 kts 164°
2026-05-08 12:14 10.42413 125.22528 30299 ft 324 kts 164°
2026-05-08 12:15 10.40267 125.23152 29889 ft 323 kts 164°
2026-05-08 12:15 10.38115 125.23778 29417 ft 321 kts 163°
2026-05-08 12:15 10.35988 125.24396 28948 ft 320 kts 163°
2026-05-08 12:15 10.33847 125.25019 28486 ft 319 kts 163°
2026-05-08 12:16 10.31712 125.25640 28033 ft 319 kts 163°
2026-05-08 12:16 10.29585 125.26258 27590 ft 318 kts 163°
2026-05-08 12:16 10.27456 125.26877 27145 ft 318 kts 163°
2026-05-08 12:16 10.25327 125.27495 26715 ft 317 kts 162°
2026-05-08 12:17 10.23205 125.28112 26298 ft 317 kts 162°
2026-05-08 12:17 10.21086 125.28728 25869 ft 316 kts 162°
2026-05-08 12:17 10.18969 125.29344 25456 ft 316 kts 162°
2026-05-08 12:17 10.16881 125.29951 25051 ft 316 kts 162°
2026-05-08 12:18 10.14766 125.30565 24658 ft 316 kts 162°
2026-05-08 12:18 10.12651 125.31180 24261 ft 316 kts 162°
2026-05-08 12:18 10.10536 125.31794 23870 ft 316 kts 162°
2026-05-08 12:18 10.08424 125.32408 23482 ft 316 kts 161°
2026-05-08 12:19 10.06307 125.33023 23023 ft 316 kts 161°
2026-05-08 12:19 10.04181 125.33641 22565 ft 317 kts 161°
2026-05-08 12:19 10.02055 125.34259 22109 ft 317 kts 161°
2026-05-08 12:19 9.99930 125.34876 21671 ft 317 kts 161°
2026-05-08 12:20 9.97812 125.35491 21235 ft 317 kts 161°
2026-05-08 12:20 9.95685 125.36109 20803 ft 318 kts 161°
2026-05-08 12:20 9.93589 125.36718 20390 ft 318 kts 161°
2026-05-08 12:20 9.91462 125.37335 19979 ft 318 kts 161°
2026-05-08 12:21 9.89305 125.37961 19555 ft 318 kts 161°
2026-05-08 12:21 9.87203 125.38571 19149 ft 318 kts 161°
2026-05-08 12:21 9.85078 125.39188 18757 ft 318 kts 161°
2026-05-08 12:21 9.82944 125.39807 18357 ft 318 kts 161°
2026-05-08 12:22 9.80817 125.40425 17922 ft 318 kts 161°
2026-05-08 12:22 9.78683 125.41045 17468 ft 318 kts 161°
2026-05-08 12:22 9.76551 125.41664 17018 ft 318 kts 161°
2026-05-08 12:22 9.74425 125.42281 16578 ft 318 kts 161°
2026-05-08 12:23 9.72295 125.42899 16141 ft 318 kts 161°
2026-05-08 12:23 9.70190 125.43510 15940 ft 309 kts 161°
2026-05-08 12:23 9.68168 125.44095 15889 ft 295 kts 161°
2026-05-08 12:23 9.66242 125.44651 15894 ft 280 kts 161°
2026-05-08 12:24 9.64444 125.45170 15850 ft 267 kts 161°
2026-05-08 12:24 9.62681 125.45681 15765 ft 254 kts 160°
2026-05-08 12:24 9.61035 125.46158 15680 ft 242 kts 160°
2026-05-08 12:24 9.59430 125.46623 15479 ft 235 kts 160°
2026-05-08 12:25 9.57868 125.47106 15022 ft 241 kts 158°
2026-05-08 12:25 9.56263 125.47653 14514 ft 248 kts 158°
2026-05-08 12:25 9.54588 125.48175 14167 ft 249 kts 162°
2026-05-08 12:25 9.52951 125.48601 14076 ft 237 kts 163°
2026-05-08 12:26 9.51387 125.49004 13910 ft 228 kts 162°
2026-05-08 12:26 9.49787 125.49434 13034 ft 252 kts 162°
2026-05-08 12:26 9.47993 125.49944 11912 ft 283 kts 161°
2026-05-08 12:26 9.46019 125.50517 10823 ft 310 kts 162°
2026-05-08 12:27 9.43861 125.51145 9756 ft 332 kts 162°
2026-05-08 12:27 9.41610 125.51797 8772 ft 346 kts 162°
2026-05-08 12:27 9.39289 125.52467 7848 ft 356 kts 162°
2026-05-08 12:27 9.37710 125.52922 7213 ft 362 kts 162°
2026-05-08 12:28 9.35257 125.53630 6183 ft 372 kts 162°
2026-05-08 12:28 9.32736 125.54358 5292 ft 375 kts 162°
2026-05-08 12:28 9.30253 125.55074 4645 ft 370 kts 162°
2026-05-08 12:28 9.27768 125.55791 3954 ft 366 kts 162°
2026-05-08 12:29 9.25382 125.56477 3617 ft 344 kts 162°
2026-05-08 12:29 9.23171 125.57114 3370 ft 319 kts 162°
2026-05-08 12:29 9.21108 125.57711 3179 ft 297 kts 163°
2026-05-08 12:29 9.19213 125.58259 3024 ft 277 kts 163°
2026-05-08 12:30 9.18152 125.58566 2988 ft 264 kts 162°
2026-05-08 12:30 9.16456 125.59057 3006 ft 240 kts 162°
2026-05-08 12:30 9.14923 125.59501 2986 ft 218 kts 162°
2026-05-08 12:30 9.13531 125.59894 3006 ft 206 kts 167°
2026-05-08 12:31 9.12094 125.60200 2993 ft 215 kts 168°
2026-05-08 12:31 9.10605 125.60525 3010 ft 224 kts 166°
2026-05-08 12:31 9.09065 125.60926 3022 ft 233 kts 163°
2026-05-08 12:31 9.07457 125.61401 3065 ft 244 kts 161°
2026-05-08 12:32 9.05831 125.61911 3282 ft 246 kts 161°
2026-05-08 12:32 9.04255 125.62400 3471 ft 248 kts 160°
2026-05-08 12:32 9.02580 125.62914 3719 ft 249 kts 161°
2026-05-08 12:32 9.00903 125.63421 3888 ft 250 kts 160°
2026-05-08 12:33 8.99293 125.63953 3980 ft 233 kts 156°
2026-05-08 12:33 8.97841 125.64477 3964 ft 218 kts 156°
2026-05-08 12:33 8.96431 125.64952 3806 ft 211 kts 159°
2026-05-08 12:33 8.95045 125.65375 3629 ft 205 kts 160°
2026-05-08 12:34 8.93682 125.65765 3464 ft 201 kts 161°
2026-05-08 12:34 8.92355 125.66131 3289 ft 195 kts 161°
2026-05-08 12:34 8.91061 125.66485 3100 ft 188 kts 161°
2026-05-08 12:34 8.89834 125.66823 2977 ft 176 kts 162°
2026-05-08 12:35 8.88693 125.67115 3014 ft 175 kts 172°
2026-05-08 12:35 8.87481 125.66887 2981 ft 178 kts 212°
2026-05-08 12:35 8.86715 125.65951 3025 ft 179 kts 252°
2026-05-08 12:35 8.86668 125.64716 2969 ft 179 kts 293°
2026-05-08 12:36 8.87315 125.63675 2979 ft 180 kts 307°
2026-05-08 12:36 8.87968 125.62602 2764 ft 178 kts 297°
2026-05-08 12:36 8.88482 125.61477 2558 ft 176 kts 294°
2026-05-08 12:36 8.88981 125.60367 2380 ft 166 kts 295°
2026-05-08 12:37 8.89456 125.59345 2197 ft 155 kts 295°
2026-05-08 12:37 8.89922 125.58384 1955 ft 150 kts 296°
2026-05-08 12:37 8.90381 125.57445 1706 ft 145 kts 295°
2026-05-08 12:37 8.90807 125.56588 1616 ft 128 kts 296°
2026-05-08 12:38 8.91214 125.55783 1507 ft 129 kts 296°
2026-05-08 12:38 8.91620 125.54968 1341 ft 128 kts 296°
2026-05-08 12:38 8.92015 125.54161 1140 ft 127 kts 295°
2026-05-08 12:38 8.92409 125.53364 963 ft 126 kts 296°
2026-05-08 12:39 8.92804 125.52573 833 ft 126 kts 297°
2026-05-08 12:39 8.93201 125.51795 690 ft 126 kts 296°
2026-05-08 12:39 8.93601 125.51007 573 ft 126 kts 296°
2026-05-08 12:39 8.93995 125.50215 410 ft 126 kts 296°
2026-05-08 12:40 8.94385 125.49426 294 ft 126 kts 295°
2026-05-08 12:40 8.94779 125.48640 84 ft 123 kts 297°
2026-05-08 12:40 8.95141 125.47910 31 ft 94 kts 296°
2026-05-08 12:40 8.95290 125.47595 31 ft 6 kts 297°
2026-05-08 12:41 8.95293 125.47590 32 ft 4 kts 297°
2026-05-08 12:41 8.95318 125.47540 30 ft 11 kts 298°
2026-05-08 12:41 8.95363 125.47462 32 ft 9 kts 299°
2026-05-08 12:41 8.95399 125.47396 30 ft 13 kts 298°
2026-05-08 12:42 8.95444 125.47303 28 ft 17 kts 296°
2026-05-08 12:42 8.95502 125.47184 23 ft 21 kts 296°
2026-05-08 12:42 8.95565 125.47059 23 ft 7 kts 309°
2026-05-08 12:42 8.95593 125.47013 24 ft 6 kts 259°
2026-05-08 12:43 8.95582 125.47010 24 ft 4 kts 180°
2026-05-08 12:43 8.95548 125.47044 24 ft 9 kts 111°
2026-05-08 12:43 8.95514 125.47119 24 ft 14 kts 115°
2026-05-08 12:43 8.95469 125.47214 27 ft 16 kts 115°
2026-05-08 12:44 8.95421 125.47314 28 ft 16 kts 116°
2026-05-08 12:44 8.95370 125.47420 29 ft 18 kts 116°
2026-05-08 12:44 8.95314 125.47535 27 ft 19 kts 116°
2026-05-08 12:44 8.95255 125.47657 33 ft 20 kts 116°
2026-05-08 12:45 8.95188 125.47793 29 ft 23 kts 116°
2026-05-08 12:45 8.95113 125.47944 31 ft 25 kts 115°
2026-05-08 12:45 8.95057 125.48054 31 ft 0 kts 127°
2026-05-08 12:45 8.95044 125.48068 30 ft 6 kts 136°
2026-05-08 12:46 8.94988 125.48098 30 ft 12 kts 156°
2026-05-08 12:46 8.94902 125.48135 33 ft 14 kts 157°
2026-05-08 12:46 8.94890 125.48139 33 ft 0 kts 157°
2026-05-08 12:59 8.94890 125.48140 29 ft 0 kts 157°
2026-05-08 12:59 8.94881 125.48143 29 ft 3 kts 157°
2026-05-08 13:00 8.94851 125.48156 34 ft 6 kts 157°
2026-05-08 13:00 8.94837 125.48162 35 ft 0 kts 157°